Tracking 35237 objects as of 5-Sep-2026
HD Live streaming from Space Station
objects crossing your sky now

SL-4 R/B


SL-4 R/B is no longer on orbit


NORAD ID: 16768
Int'l Code: 1986-043B
Launch date: June 6, 1986
Source: Commonwealth of Independent States (former USSR) (CIS)
Launch site: TYURATAM MISSILE AND SPACE COMPLEX (TTMTR)
Decay date: 1986-06-13

Note: This is a ROCKET BODY
Your satellite tracking list
Your tracking list is empty




NASA's NSSDC Master Catalog

Two Line Element Set (TLE):
1 16768U 86043B   86163.82051524  .15271324 +33312-4 +28947-3 0  9994
2 16768 064.8788 096.9408 0030063 066.6152 293.8341 16.43983716001015
Source of the keplerian elements: AFSPC